TACOMA NARROWS BRIDGE WA US WA DOT current weather conditions

sailwx.info

Wind from 344 at 1 knots gusting 7

Last reported at 2019-Dec-11 21:45 UTC.
Time now 2019-Dec-11 22:25 UTC

Location: N 47°16' W 122°33'.
View on Google Maps.

See reports from other nearby stations

  
Tides and Currents Weather Stations Pressure Air Temp Water Temp Dewpoint Dewpoint Depression Visibility Wind Speed Wind Dir Waves Ship Positions
date/time (UTC)wind fromknots sea level pressurealtimeterstation pressurevisibilityair tempwater tempwave heightnotes
2019-Dec-11 22:00 213 1 gusting 6
2019-Dec-11 21:45 344 1 gusting 7
2019-Dec-11 21:40 284 2 gusting 5
2019-Dec-11 21:35 294 3 gusting 5
2019-Dec-11 21:25 031 0 gusting 4
2019-Dec-11 21:20 326 1 gusting 4
2019-Dec-11 21:15 288 1 gusting 5
2019-Dec-11 21:10
2019-Dec-11 21:00 235 0 gusting 5
2019-Dec-11 20:50 194 0 gusting 5
2019-Dec-11 20:45
2019-Dec-11 20:40 282 2 gusting 5
2019-Dec-11 20:30 275 0 gusting 4
2019-Dec-11 20:25 276 0 gusting 4
2019-Dec-11 20:15 173 2 gusting 3
2019-Dec-11 20:05 182 2 gusting 4
2019-Dec-11 19:55 196 2 gusting 3
2019-Dec-11 19:50 207 1 gusting 3
2019-Dec-11 19:45 181 1 gusting 3
2019-Dec-11 19:40 163 1 gusting 2
2019-Dec-11 19:35 170 1 gusting 5
2019-Dec-11 19:25 181 0 gusting 3
2019-Dec-11 19:20 152 0 gusting 4
2019-Dec-11 19:15 280 0 gusting 5
2019-Dec-11 19:10 261 1 gusting 5
2019-Dec-11 19:00 257 1 gusting 7
2019-Dec-11 18:55 275 2 gusting 7
2019-Dec-11 18:50 321 1 gusting 6
2019-Dec-11 18:40 294 1 gusting 4
2019-Dec-11 18:35 320 1 gusting 6
2019-Dec-11 18:30 308 1 gusting 6
2019-Dec-11 18:25 266 1 gusting 5
2019-Dec-11 18:15 025 0 gusting 36
2019-Dec-11 18:05 309 1 gusting 6
2019-Dec-11 18:00 335 2 gusting 6
2019-Dec-11 17:55 312 2 gusting 5
2019-Dec-11 17:45 347 0 gusting 6
2019-Dec-11 17:35 028 1 gusting 5
2019-Dec-11 17:25 341 1 gusting 4
2019-Dec-11 17:20 332 2 gusting 4
2019-Dec-11 17:15 339 1 gusting 4
2019-Dec-11 17:05 335 1 gusting 6
2019-Dec-11 17:00 002 1 gusting 6
2019-Dec-11 16:55
2019-Dec-11 16:45 005 0 gusting 4
2019-Dec-11 16:35 045 1 gusting 11
2019-Dec-11 16:25 045 2 gusting 5
2019-Dec-11 16:20 002 1 gusting 4
2019-Dec-11 16:15 001 1 gusting 4
2019-Dec-11 16:05 330 1 gusting 6
2019-Dec-11 16:00 296 0 gusting 4
2019-Dec-11 15:55 015 1 gusting 4
2019-Dec-11 15:45 144 1 gusting 31
2019-Dec-11 15:35 095 0 gusting 3
2019-Dec-11 15:25 073 2 gusting 6
2019-Dec-11 15:15 076 4 gusting 7
2019-Dec-11 15:10 069 2 gusting 5
2019-Dec-11 15:05 067 3 gusting 5
2019-Dec-11 14:55 078 2 gusting 4
2019-Dec-11 14:45 085 2 gusting 5
2019-Dec-11 14:40 092 2 gusting 5
2019-Dec-11 14:35 083 2 gusting 5
2019-Dec-11 14:25 069 1 gusting 4
2019-Dec-11 14:20 092 1 gusting 3
2019-Dec-11 14:15 095 1 gusting 4
2019-Dec-11 14:10 095 1 gusting 4
2019-Dec-11 14:05 056 1 gusting 4
2019-Dec-11 13:55 080 0 gusting 3
2019-Dec-11 13:50 022 0 gusting 2
2019-Dec-11 13:45
2019-Dec-11 13:40 054 1 gusting 3
2019-Dec-11 13:35
2019-Dec-11 13:30 149 1 gusting 4
2019-Dec-11 13:25 153 1 gusting 7
2019-Dec-11 13:20 202 3 gusting 7
2019-Dec-11 13:15 212 3 gusting 5
2019-Dec-11 13:10 212 2 gusting 5
2019-Dec-11 13:00 224 1 gusting 5
2019-Dec-11 12:55 226 1 gusting 5
2019-Dec-11 12:45 231 1 gusting 3
2019-Dec-11 12:35 235 2 gusting 4
2019-Dec-11 12:25 229 2 gusting 3
2019-Dec-11 12:15 231 1 gusting 4
2019-Dec-11 12:10 195 1 gusting 3
2019-Dec-11 12:00 210 3 gusting 4
2019-Dec-11 11:50 183 2 gusting 3
2019-Dec-11 11:45 183 2 gusting 3
2019-Dec-11 11:40 169 2 gusting 3
2019-Dec-11 11:35 163 2 gusting 3
2019-Dec-11 11:30 146 2 gusting 3
2019-Dec-11 11:25
2019-Dec-11 11:15 100 1 gusting 3
2019-Dec-11 11:05 138 1 gusting 1
2019-Dec-11 10:55 080 1 gusting 2
2019-Dec-11 10:50 089 1 gusting 2
2019-Dec-11 10:45 083 1 gusting 3
2019-Dec-11 10:35 062 2 gusting 3
2019-Dec-11 10:30 070 2 gusting 3
2019-Dec-11 10:20 121 1 gusting 3
2019-Dec-11 10:15 101 1 gusting 3
2019-Dec-11 10:05 095 2 gusting 3
2019-Dec-11 09:55 114 2 gusting 3
2019-Dec-11 09:45 129 2 gusting 3
2019-Dec-11 09:35 129 2 gusting 3
2019-Dec-11 09:30 135 2 gusting 3
2019-Dec-11 09:25 140 2 gusting 4
2019-Dec-11 09:20 141 2 gusting 5
2019-Dec-11 09:15 149 2 gusting 5
2019-Dec-11 09:10 142 2 gusting 4
2019-Dec-11 09:05 141 3 gusting 4
2019-Dec-11 09:00 116 1 gusting 4
2019-Dec-11 08:55 103 1 gusting 8
2019-Dec-11 08:45 153 3 gusting 8
2019-Dec-11 08:35 156 3 gusting 9
2019-Dec-11 08:30 177 5 gusting 9
2019-Dec-11 08:25 174 6 gusting 10
2019-Dec-11 08:15 182 4 gusting 10
2019-Dec-11 08:10 175 7 gusting 11
2019-Dec-11 08:05 192 6 gusting 11
2019-Dec-11 08:00
2019-Dec-11 07:55 178 5 gusting 12
2019-Dec-11 07:50 197 4 gusting 12
2019-Dec-11 07:45 183 5 gusting 12
2019-Dec-11 07:35 177 4 gusting 10
2019-Dec-11 07:25 171 3 gusting 7
2019-Dec-11 07:20 176 3 gusting 7
2019-Dec-11 07:15 175 3 gusting 8
2019-Dec-11 07:10 174 5 gusting 8
2019-Dec-11 07:05 180 4 gusting 7
2019-Dec-11 07:00 164 4 gusting 9
2019-Dec-11 06:55 155 4 gusting 9
2019-Dec-11 06:50 164 5 gusting 8
2019-Dec-11 06:45 162 5 gusting 8
2019-Dec-11 06:35 164 3 gusting 8
2019-Dec-11 06:30 162 4 gusting 7
2019-Dec-11 06:25 160 2 gusting 6
2019-Dec-11 06:20 154 3 gusting 6
2019-Dec-11 06:15 159 4 gusting 7
2019-Dec-11 06:10 165 4 gusting 7
2019-Dec-11 06:05 156 3 gusting 7
2019-Dec-11 06:00 161 4 gusting 7
2019-Dec-11 05:55 162 4 gusting 7
2019-Dec-11 05:50 158 4 gusting 6
2019-Dec-11 05:45 159 4 gusting 5
2019-Dec-11 05:35 148 3 gusting 5
2019-Dec-11 05:30 149 3 gusting 5
2019-Dec-11 05:20 160 3 gusting 5
2019-Dec-11 05:15 164 3 gusting 5
2019-Dec-11 05:10 152 3 gusting 5
2019-Dec-11 05:00 148 4 gusting 6
2019-Dec-11 04:55 153 4 gusting 7
2019-Dec-11 04:45 163 3 gusting 6
2019-Dec-11 04:40
2019-Dec-11 04:35 157 3 gusting 6
2019-Dec-11 04:25 167 3 gusting 5
2019-Dec-11 04:20 166 3 gusting 5
2019-Dec-11 04:15 162 2 gusting 5
2019-Dec-11 04:10 165 2 gusting 6
2019-Dec-11 04:05 165 4 gusting 6
2019-Dec-11 04:00 148 3 gusting 5
2019-Dec-11 03:55 142 2 gusting 5
2019-Dec-11 03:45 150 3 gusting 5
2019-Dec-11 03:40 155 3 gusting 5
2019-Dec-11 03:35 155 3 gusting 5
2019-Dec-11 03:30 151 3 gusting 4
2019-Dec-11 03:25 151 2 gusting 3
2019-Dec-11 03:15 147 2 gusting 4
2019-Dec-11 03:10 138 3 gusting 4
2019-Dec-11 03:05 138 3 gusting 4
2019-Dec-11 03:00 153 2 gusting 3
2019-Dec-11 02:55 152 2 gusting 3
2019-Dec-11 02:45 137 2 gusting 3
2019-Dec-11 02:40 128 2 gusting 2
2019-Dec-11 02:35 123 1 gusting 2
2019-Dec-11 02:30 121 1 gusting 2
2019-Dec-11 02:25 118 1 gusting 2
2019-Dec-11 02:15 141 0 gusting 3
2019-Dec-11 02:10
2019-Dec-11 02:00 284 1 gusting 4
2019-Dec-11 01:55 353 0 gusting 4
2019-Dec-11 01:45 280 0 gusting 3
2019-Dec-11 01:35 257 1 gusting 4
2019-Dec-11 01:25 194 0 gusting 1
2019-Dec-11 01:20 205 0 gusting 4
2019-Dec-11 01:15
2019-Dec-11 01:10
2019-Dec-11 01:00 289 2 gusting 6
2019-Dec-11 00:50 316 0 gusting 4
2019-Dec-11 00:45 325 1 gusting 4
2019-Dec-11 00:35 302 1 gusting 5
2019-Dec-11 00:25 327 1 gusting 3
2019-Dec-11 00:15 297 3 gusting 9
2019-Dec-11 00:10 311 1 gusting 4
2019-Dec-11 00:05 285 1 gusting 5
2019-Dec-10 23:55 286 1 gusting 5
2019-Dec-10 23:50 242 0 gusting 7
2019-Dec-10 23:45 315 2 gusting 7
2019-Dec-10 23:40 002 1 gusting 5
2019-Dec-10 23:35 059 2 gusting 4
2019-Dec-10 23:25 059 0 gusting 4
2019-Dec-10 23:20 084 0 gusting 6
2019-Dec-10 23:15 126 0 gusting 6
2019-Dec-10 23:05 049 1 gusting 4
2019-Dec-10 22:55 312 1
2019-Dec-10 22:50 069 3 gusting 6
2019-Dec-10 22:45 069 1 gusting 4
2019-Dec-10 22:40 026 1 gusting 4
2019-Dec-10 22:35 060 1 gusting 6
2019-Dec-10 22:30 077 3 gusting 6
2019-Dec-10 22:20 075 1 gusting 5
2019-Dec-10 22:15 079 1 gusting 5
2019-Dec-10 22:10 110 1 gusting 4
2019-Dec-10 22:00 096 1 gusting 4
2019-Dec-10 21:50 114 1 gusting 4
2019-Dec-10 21:45 136 0 gusting 8
2019-Dec-10 21:40 113 2 gusting 8
2019-Dec-10 21:30 176 1 gusting 5
2019-Dec-10 21:25 131 1 gusting 5
2019-Dec-10 21:15 099 1 gusting 4
2019-Dec-10 21:10 097 1 gusting 4
2019-Dec-10 21:00 038 0 gusting 5
2019-Dec-10 20:55 090 1 gusting 5
2019-Dec-10 20:45 046 1 gusting 3
2019-Dec-10 20:40 098 1 gusting 3
2019-Dec-10 20:35 085 0 gusting 3
2019-Dec-10 20:30 108 1 gusting 3
2019-Dec-10 20:25 132 1 gusting 3
2019-Dec-10 20:15 158 1 gusting 3
2019-Dec-10 20:10 166 1 gusting 3
2019-Dec-10 20:00 173 1 gusting 5
2019-Dec-10 19:55 164 3 gusting 7
2019-Dec-10 19:45 167 3 gusting 7
2019-Dec-10 19:40 178 1 gusting 8
2019-Dec-10 19:35 177 4 gusting 9
2019-Dec-10 19:30 181 5 gusting 9
2019-Dec-10 19:20 173 5 gusting 8
2019-Dec-10 19:15 187 4 gusting 8
2019-Dec-10 19:10
2019-Dec-10 19:05 177 3 gusting 5
2019-Dec-10 19:00 157 2 gusting 5
2019-Dec-10 18:55 160 2 gusting 8
2019-Dec-10 18:45 170 4 gusting 8
2019-Dec-10 18:40 174 5 gusting 10
2019-Dec-10 18:35 190 4 gusting 10
2019-Dec-10 18:30 180 4 gusting 11
2019-Dec-10 18:25 203 6 gusting 11
2019-Dec-10 18:20 179 6 gusting 10
2019-Dec-10 18:15 204 5 gusting 12
2019-Dec-10 18:10 196 7 gusting 13
2019-Dec-10 18:05 203 6 gusting 13
2019-Dec-10 18:00 189 4 gusting 11
2019-Dec-10 17:55 198 5 gusting 12
2019-Dec-10 17:50 196 5 gusting 14
2019-Dec-10 17:45 208 6 gusting 14
2019-Dec-10 17:40 201 6 gusting 12
2019-Dec-10 17:30 187 3 gusting 8
2019-Dec-10 17:25 173 3 gusting 7
2019-Dec-10 17:15 179 2 gusting 6
2019-Dec-10 17:10 151 2 gusting 6
2019-Dec-10 17:00 159 2 gusting 4
2019-Dec-10 16:50 150 2 gusting 6
2019-Dec-10 16:45 133 3 gusting 7
2019-Dec-10 16:35 127 5 gusting 10
2019-Dec-10 16:25 146 4 gusting 8
2019-Dec-10 16:15 135 3 gusting 6
2019-Dec-10 16:10 119 4 gusting 7
2019-Dec-10 16:05 125 4 gusting 7
2019-Dec-10 16:00 132 5 gusting 7
2019-Dec-10 15:55
2019-Dec-10 15:50 118 2 gusting 5
2019-Dec-10 15:45 127 3 gusting 6
2019-Dec-10 15:40 132 4 gusting 7
2019-Dec-10 15:30 148 3 gusting 5
2019-Dec-10 15:20 127 3 gusting 5
2019-Dec-10 15:10 114 3 gusting 7
2019-Dec-10 15:05 106 4 gusting 7
2019-Dec-10 14:55 107 3 gusting 6
2019-Dec-10 14:50 111 3 gusting 6
2019-Dec-10 14:45 115 2 gusting 5
2019-Dec-10 14:40 108 3 gusting 5
2019-Dec-10 14:35 125 3 gusting 5
2019-Dec-10 14:30 151 2 gusting 6
2019-Dec-10 14:25 174 2 gusting 10
2019-Dec-10 14:15 185 3 gusting 11
2019-Dec-10 14:10 197 5 gusting 11
2019-Dec-10 14:00 201 5 gusting 13
2019-Dec-10 13:50 196 6 gusting 14
2019-Dec-10 13:45 185 8 gusting 14
2019-Dec-10 13:40 195 7 gusting 14
2019-Dec-10 13:30 204 5 gusting 14
2019-Dec-10 13:25 198 7 gusting 14
2019-Dec-10 13:20 203 6 gusting 15
2019-Dec-10 13:15 188 5 gusting 15
2019-Dec-10 13:05 206 8 gusting 14
2019-Dec-10 12:55 167 4 gusting 8
2019-Dec-10 12:50 166 3 gusting 9
2019-Dec-10 12:45 180 5 gusting 9
2019-Dec-10 12:40 151 4 gusting 8
2019-Dec-10 12:35 143 2 gusting 5
2019-Dec-10 12:25 137 2 gusting 5
2019-Dec-10 12:15 102 3 gusting 6
2019-Dec-10 12:10 114 3 gusting 6
2019-Dec-10 12:05 154 2 gusting 7
2019-Dec-10 11:55 170 1 gusting 3
2019-Dec-10 11:45 211 2 gusting 8
2019-Dec-10 11:40 177 4 gusting 8
2019-Dec-10 11:30 207 5 gusting 8
2019-Dec-10 11:25 168 3 gusting 9
2019-Dec-10 11:20 182 4 gusting 9
2019-Dec-10 11:15 170 2 gusting 7
2019-Dec-10 11:05 140 2 gusting 7
2019-Dec-10 11:00 139 4 gusting 8
2019-Dec-10 10:55 149 1 gusting 8
2019-Dec-10 10:45 169 4 gusting 5
2019-Dec-10 10:40 156 3 gusting 4
2019-Dec-10 10:30 139 3 gusting 5
2019-Dec-10 10:25 132 2 gusting 5
2019-Dec-10 10:20 153 3 gusting 4
2019-Dec-10 10:15 156 1 gusting 5
2019-Dec-10 10:05 128 3 gusting 5
2019-Dec-10 09:55 140 3 gusting 4
2019-Dec-10 09:50 138 3 gusting 4
2019-Dec-10 09:45 127 3 gusting 4
2019-Dec-10 09:40 138 2 gusting 4
2019-Dec-10 09:35 121 1 gusting 4
2019-Dec-10 09:30 126 2 gusting 3
2019-Dec-10 09:25 118 2 gusting 4
2019-Dec-10 09:20 096 3 gusting 4
2019-Dec-10 09:15 110 1 gusting 4
2019-Dec-10 09:10 098 2 gusting 4
2019-Dec-10 09:05 112 3 gusting 5
2019-Dec-10 08:55 128 3 gusting 5
2019-Dec-10 08:50 134 1 gusting 4
2019-Dec-10 08:45 141 2 gusting 4
2019-Dec-10 08:35 121 2 gusting 3
2019-Dec-10 08:30 125 1 gusting 2
2019-Dec-10 08:25 097 0 gusting 2
2019-Dec-10 08:15 076 2 gusting 3
2019-Dec-10 08:05 108 0 gusting 1
2019-Dec-10 07:55 121 1 gusting 3
2019-Dec-10 07:50 102 1 gusting 3
2019-Dec-10 07:45 120 2 gusting 3
2019-Dec-10 07:35 124 1 gusting 2
2019-Dec-10 07:30 221 1 gusting 3
2019-Dec-10 07:25 139 1 gusting 3
2019-Dec-10 07:15 161 1 gusting 3
2019-Dec-10 07:05
2019-Dec-10 07:00 149 2 gusting 3
2019-Dec-10 06:55 209 1 gusting 2
2019-Dec-10 06:45 052 0 gusting 4
2019-Dec-10 06:40
2019-Dec-10 06:30 092 2 gusting 4
2019-Dec-10 06:25 086 2 gusting 4
2019-Dec-10 06:20 098 2 gusting 4
2019-Dec-10 06:15 084 0 gusting 2
2019-Dec-10 06:05 098 1 gusting 6
2019-Dec-10 06:00
2019-Dec-10 05:50 074 2 gusting 5
2019-Dec-10 05:45 089 3 gusting 5
2019-Dec-10 05:40 079 3 gusting 5
2019-Dec-10 05:35 065 4 gusting 5
2019-Dec-10 05:30 076 3 gusting 4
2019-Dec-10 05:20 060 2 gusting 3
2019-Dec-10 05:10 053 2 gusting 3
2019-Dec-10 05:05 071 2 gusting 3
2019-Dec-10 05:00 066 2 gusting 3
2019-Dec-10 04:55 060 2 gusting 3
2019-Dec-10 04:45 038 1 gusting 3
2019-Dec-10 04:40 122 1 gusting 3
2019-Dec-10 04:30 078 1 gusting 3
2019-Dec-10 04:25 072 2 gusting 3
2019-Dec-10 04:15 070 2 gusting 3
2019-Dec-10 04:05
2019-Dec-10 04:00 098 1 gusting 3
2019-Dec-10 03:55 091 0 gusting 3
2019-Dec-10 03:45 052 2 gusting 4
2019-Dec-10 03:40 047 3 gusting 4
2019-Dec-10 03:30 048 1 gusting 3
2019-Dec-10 03:25 072 1 gusting 3
2019-Dec-10 03:15 097 2 gusting 5
2019-Dec-10 03:10 087 4 gusting 5
2019-Dec-10 03:00 047 2 gusting 5
2019-Dec-10 02:50 034 1 gusting 3
2019-Dec-10 02:45
2019-Dec-10 02:35 003 1 gusting 4
2019-Dec-10 02:30 326 1 gusting 4
2019-Dec-10 02:25 356 1 gusting 4
2019-Dec-10 02:15 020 2 gusting 4
2019-Dec-10 02:10 022 1 gusting 3
2019-Dec-10 02:05 014 1 gusting 3
2019-Dec-10 02:00 009 1 gusting 3
2019-Dec-10 01:55 040 1 gusting 3
2019-Dec-10 01:50 050 1 gusting 4
2019-Dec-10 01:45 047 2 gusting 5
2019-Dec-10 01:40 030 1 gusting 5
2019-Dec-10 01:35 023 2 gusting 16
2019-Dec-10 01:25 343 1 gusting 5
2019-Dec-10 01:20 290 2 gusting 5
2019-Dec-10 01:15 306 2 gusting 5
2019-Dec-10 01:10 323 2 gusting 5
2019-Dec-10 01:00 350 1 gusting 7
2019-Dec-10 00:55 320 2 gusting 7
2019-Dec-10 00:50 313 3 gusting 6
2019-Dec-10 00:45 299 4 gusting 5
2019-Dec-10 00:40 319 2 gusting 4
2019-Dec-10 00:30 288 2 gusting 5
2019-Dec-10 00:25 315 1 gusting 5
2019-Dec-10 00:15 346 2
2019-Dec-10 00:05 358 1 gusting 5
2019-Dec-10 00:00 337 1 gusting 6
2019-Dec-09 23:55 011 3 gusting 6
2019-Dec-09 23:35 008 2 gusting 9
2019-Dec-09 23:25 318 1 gusting 4
2019-Dec-09 23:15 032 2 gusting 5
2019-Dec-09 23:10 020 1 gusting 7
2019-Dec-09 23:00 356 2 gusting 5
2019-Dec-09 22:55 304 2 gusting 5
2019-Dec-09 22:50 316 2 gusting 7
2019-Dec-09 22:45 013 4 gusting 7
2019-Dec-09 22:40 026 1 gusting 6
2019-Dec-09 22:35 016 2 gusting 6
2019-Dec-09 22:25 023 3 gusting 6
2019-Dec-09 22:15 035 2 gusting 5
2019-Dec-09 22:10 348 1 gusting 5
2019-Dec-09 22:00 056 1 gusting 5